Regional Weather Roundup
Issued by NWS

Home | Current Version | Previous Version | Graphics & Text | Print | Product List | Glossary On
Versions: 1 2 3 4 5 6 7 8 9 10 11 12 13 14 15 16 17 18 19 20 21 22 23 24 25 26 27 28 29 30 31 32 33 34 35 36 37 38 39 40 41 42 43 44 45 46 47 48 49 50
000
ASUS43 KDMX 171907
RWRIA

WEATHER ROUNDUP FOR IOWA
NATIONAL WEATHER SERVICE DES MOINES IA
200 PM CDT FRI APR 17 2015

NOTE: "FAIR" INDICATES FEW OR NO CLOUDS BELOW 12,000 FEET WITH NO
SIGNIFICANT WEATHER AND/OR OBSTRUCTIONS TO VISIBILITY.

* - THESE STATIONS ARE NOT NWS STATIONS...THUS NOT UNDER NWS
QUALITY CONTROL.  THEY ALSO DO NOT REPORT WEATHER SUCH
AS PRECIPITATION OR FOG.

IAZ001>003-012>014-020>022-031>034-043>046-172000-
   NORTHWEST IOWA

CITY           SKY/WX    TMP DP  RH WIND       PRES   REMARKS
CARROLL *      MOSUNNY   75  46  35 VRB3G13   30.04F
CHEROKEE *     SUNNY     75  46  35 CALM      30.06F
DENISON *      SUNNY     73  50  43 VRB6G13   30.03F
LE MARS *      PTSUNNY   73  46  38 VRB5      30.07F
ORANGE CITY *  MOSUNNY   72  45  37 E3        30.08F
SHELDON *      SUNNY     75  45  33 VRB6      30.07F
SIOUX CITY     PTSUNNY   73  49  42 SE6       30.06F
SPENCER        MOSUNNY   75  43  31 NW8       30.08F
STORM LAKE *   SUNNY     75  45  33 NE10      30.07F
$$

IAZ055>058-069>071-079>083-090>094-172000-
   SOUTHWEST IOWA

CITY           SKY/WX    TMP DP  RH WIND       PRES   REMARKS
ATLANTIC *     MOSUNNY   75  52  43 E9        30.05S
AUDUBON *      MOSUNNY   75  52  43 E8        30.06F
CLARINDA *     PTSUNNY   75  54  46 SE6       30.06F
COUNCIL BLFS * MOSUNNY   75  54  46 SE8G16    30.05F
CRESTON *      PTSUNNY   73  54  49 S8        30.06F
HARLAN  *      PTSUNNY   75  50  41 E9        30.08F
LAMONI         MOSUNNY   75  52  44 E6        30.05F
RED OAK *      MOSUNNY   73  54  49 SE7G15    30.05F
SHENANDOAH *   PTSUNNY   75  55  50 SE10      30.05F
$$

IAZ047>049-059>061-072>074-084-172000-
   CENTRAL IOWA

CITY           SKY/WX    TMP DP  RH WIND       PRES   REMARKS
AMES           SUNNY     76  50  40 CALM      30.05F
ANKENY *       MOSUNNY   77  52  41 CALM      30.04F
CHARITON *     PTSUNNY   73  54  49 SE8G15    30.05F
DES MOINES     PTSUNNY   78  48  34 S6        30.05F
GRINNELL*      MOSUNNY   73  48  40 CALM      30.06F
KNOXVILLE *    PTSUNNY   73  50  43 E7        30.04F
MARSHALLTOWN   SUNNY     76  50  40 CALM      30.04F
PELLA *        SUNNY     75  55  50 CALM      30.06F
PERRY *          N/A     77  46  33 NE7       30.04F
$$

IAZ004>006-015-016-023>025-035-036-172000-
   NORTH CENTRAL IOWA

CITY           SKY/WX    TMP DP  RH WIND       PRES   REMARKS
ALGONA *       SUNNY     73  45  35 NE7       30.07F
CLARION *      MOSUNNY   73  45  35 N6        30.06S
ESTHERVILLE    SUNNY     72  45  37 VRB6      30.07F
FORT DODGE *   MOSUNNY   75  48  38 CALM      30.07F
MASON CITY     SUNNY     76  43  30 NW6       30.07F
FOREST CITY *  SUNNY     72  43  35 CALM      30.07S
IOWA FALLS *   PTSUNNY   75  45  33 CALM      30.06F
$$

IAZ007>011-017>019-026>030-037>042-050>054-066-172000-
   NORTHEAST IOWA

CITY           SKY/WX    TMP DP  RH WIND       PRES   REMARKS
CEDAR RAPIDS   PTSUNNY   77  50  38 MISG      30.03F
CHARLES CITY * SUNNY     75  45  33 VRB3      30.05F
CLINTON *      MOSUNNY   75  48  38 W3        30.06F
DECORAH *      SUNNY     73  45  35 W8        30.03F
DUBUQUE        PTSUNNY   74  47  38 W7        30.05F
MONTICELLO *   SUNNY     77  48  36 W8        30.04S
OELWEIN *      CLOUDY    75  48  38 NW7       30.05F
WATERLOO       PTSUNNY   76  48  37 VRB3      30.04F
$$

IAZ064-065-067-068-078-172000-
   EAST CENTRAL IOWA

CITY           SKY/WX    TMP DP  RH WIND       PRES   REMARKS
DAVENPORT      PTSUNNY   77  46  33 E5        30.05F
IOWA CITY      PTSUNNY   76  53  44 SE5       30.05F
MT. PLEASANT * SUNNY     77  48  36 W6        30.04F
MUSCATINE *    MOSUNNY   79  48  34 VRB6      30.03F
QUAD CITIES    MOSUNNY   80  46  30 CALM      30.03F
$$

IAZ062-063-075>077-085>089-095>099-172000-
   SOUTHEAST IOWA

CITY           SKY/WX    TMP DP  RH WIND       PRES   REMARKS
BURLINGTON     PTSUNNY   77  53  43 W7        30.03F
FAIRFIELD *    PTSUNNY   77  52  41 CALM      30.05F
FORT MADISON * MOSUNNY   79  52  38 SW8       30.05F
KEOKUK *       CLOUDY    75  54  46 CALM      30.03F
OSKALOOSA *      N/A     77  48  36 SW5       30.05F
CENTERVILLE *  SUNNY     75  55  50 CALM      30.06F
OTTUMWA        CLOUDY    78  51  38 VRB5      30.04F
WASHINGTON *   MOSUNNY   77  50  38 S9        30.04F
$$

ABBREVIATIONS USED IN REMARKS
   TC - TEMPERATURES IN CELSIUS
  WCI - WIND CHILL INDEX
   HX - HEAT INDEX
  VSB - VISIBILITY
$$




USA.gov is the U.S. government's official web portal to all federal, state and local government web resources and services.